KD7MPG-3 Weather Reports


time (UTC)temp
C
wind
direction
speed
KPH
gust
KPH
rain 1hr
cm
rain 24hr
cm
rain mn
cm
humidity
%
barometer
mb
20260906223907 16 153 1.6 8.0 0.00 2.06 2.06 89 1026.4
20260906223400 16 154 0.0 4.8 0.00 2.06 2.06 89 1026.4
20260906222859 16 154 1.6 4.8 0.00 2.06 2.06 90 1026.3
20260906222359 16 155 1.6 4.8 0.00 2.06 2.06 90 1026.3
20260906221859 16 145 1.6 6.4 0.00 2.06 2.06 90 1026.3
20260906221357 16 151 1.6 6.4 0.00 2.06 2.06 90 1026.6
20260906220858 16 138 1.6 8.0 0.00 2.06 2.06 90 1026.4
20260906220359 16 155 1.6 8.0 0.00 2.06 2.06 90 1026.4
20260906215853 16 161 0.0 6.4 0.00 2.06 2.06 90 1026.6
20260906215353 16 157 0.0 6.4 0.00 2.06 2.06 90 1026.6
20260906214854 16 161 0.0 6.4 0.00 2.06 2.06 90 1026.4
20260906214353 15 162 0.0 6.4 0.00 2.06 2.06 91 1026.4
20260906213853 15 163 1.6 4.8 0.00 2.06 2.06 91 1026.3
20260906213354 15 147 0.0 4.8 0.00 2.06 2.06 91 1026.4
20260906212849 15 218 0.0 3.2 0.00 2.06 2.06 90 1026.3
20260906212350 15 218 0.0 3.2 0.00 2.06 2.06 91 1026.3
20260906211849 15 221 0.0 3.2 0.00 2.06 2.06 91 1026.3
20260906211349 15 221 0.0 4.8 0.00 2.06 2.06 91 1026.3
20260906210849 15 220 0.0 4.8 0.00 2.06 2.06 91 1026.3
20260906210351 15 221 0.0 4.8 0.00 2.06 2.06 91 1026.2
20260906205844 15 222 0.0 3.2 0.00 2.06 2.06 91 1026.2
20260906205343 15 221 0.0 1.6 0.00 2.06 2.06 91 1026.1
20260906204844 15 221 0.0 3.2 0.00 2.06 2.06 91 1026.2
20260906204343 15 221 0.0 3.2 0.00 2.06 2.06 91 1026.1
20260906203845 15 162 0.0 3.2 0.00 2.06 2.06 91 1026.1
20260906203342 15 161 0.0 3.2 0.00 2.06 2.06 91 1026.0
20260906202842 15 162 0.0 1.6 0.00 2.06 2.06 91 1026.0
20260906202340 15 161 0.0 3.2 0.00 2.06 2.06 91 1026.1
20260906201838 15 161 0.0 3.2 0.00 2.06 2.06 91 1026.0
20260906201334 15 161 0.0 3.2 0.00 2.06 2.06 92 1026.0
20260906200831 15 160 0.0 3.2 0.00 2.06 2.06 91 1025.9
20260906200331 14 160 0.0 3.2 0.00 2.06 2.06 92 1026.0
20260906195832 14 160 0.0 3.2 0.00 2.06 2.06 92 1025.9
20260906195331 14 161 0.0 1.6 0.00 2.06 2.06 92 1025.9
20260906194832 14 160 0.0 1.6 0.03 2.06 2.06 92 1025.9
20260906194325 14 161 0.0 1.6 0.03 2.06 2.06 92 1025.9
20260906193824 14 161 0.0 1.6 0.03 2.06 2.06 92 1025.8
20260906193321 14 161 0.0 3.2 0.05 2.06 2.06 92 1025.9
20260906192819 14 160 1.6 6.4 0.05 2.06 2.06 92 1025.8
20260906192320 14 159 1.6 6.4 0.08 2.06 2.06 92 1025.7
20260906191817 14 171 1.6 6.4 0.08 2.06 2.06 92 1025.7
20260906191315 14 177 0.0 4.8 0.08 2.06 2.06 92 1025.8
20260906190817 14 219 0.0 4.8 0.10 2.06 2.06 92 1025.7
20260906190315 14 246 0.0 4.8 0.10 2.06 2.06 92 1025.9
20260906185813 14 248 0.0 3.2 0.13 2.06 2.06 92 1025.8
20260906185314 14 247 0.0 3.2 0.13 2.06 2.06 92 1025.9
20260906184810 14 248 0.0 3.2 0.13 2.03 2.03 92 1025.9
20260906184309 13 248 0.0 3.2 0.13 2.03 2.03 92 1025.9
20260906183807 13 248 0.0 3.2 0.15 2.03 2.03 92 1025.9
20260906183307 13 249 0.0 3.2 0.15 2.01 2.03 92 1026.0
20260906182807 13 248 1.6 4.8 0.25 2.01 2.01 92 1026.0
20260906182307 13 246 0.0 4.8 0.38 1.98 1.98 92 1026.0
20260906181807 13 246 0.0 3.2 0.64 1.98 1.98 92 1025.9
20260906181303 13 245 0.0 1.6 0.86 1.98 1.98 92 1025.8
20260906180804 13 246 0.0 1.6 1.17 1.96 1.96 92 1025.8
20260906180303 13 246 0.0 1.6 1.30 1.96 1.96 92 1025.8
20260906175801 13 246 0.0 3.2 1.42 1.93 1.93 92 1025.8
20260906175301 13 246 0.0 3.2 1.52 1.93 1.93 92 1025.6
20260906174756 13 246 0.0 4.8 1.55 1.91 1.91 92 1025.6
20260906174255 13 245 0.0 4.8 1.57 1.91 1.91 92 1025.5
20260906173755 13 0 0.0 3.2 1.55 1.88 1.88 92 1025.5
20260906173257 13 333 0.0 4.8 1.55 1.85 1.85 92 1025.4
20260906172755 13 332 1.6 4.8 1.45 1.75 1.78 92 1025.5
20260906172256 13 250 0.0 4.8 1.30 1.60 1.63 92 1025.4
20260906171751 13 237 1.6 6.4 1.07 1.35 1.40 92 1025.5
20260906171251 13 239 1.6 4.8 0.84 1.12 1.12 92 1025.4
20260906170749 13 166 1.6 4.8 0.53 0.79 0.84 92 1025.5
20260906170249 13 169 0.0 3.2 0.41 0.66 0.69 92 1025.3
20260906165749 13 169 0.0 1.6 0.28 0.51 0.53 92 1025.3
20260906165250 13 169 0.0 6.4 0.15 0.38 0.38 92 1025.3
20260906164745 13 169 1.6 6.4 0.13 0.36 0.36 92 1025.2
20260906164245 13 200 1.6 8.0 0.13 0.33 0.33 92 1025.0
20260906163746 13 212 1.6 8.0 0.13 0.33 0.33 92 1025.0
20260906163245 13 259 1.6 9.7 0.13 0.30 0.30 92 1024.9
20260906162743 13 210 1.6 9.7 0.15 0.30 0.30 92 1024.9
20260906162244 13 198 0.0 6.4 0.18 0.30 0.30 92 1024.9
20260906161739 13 223 0.0 4.8 0.15 0.28 0.28 92 1024.9
20260906161239 13 246 0.0 3.2 0.18 0.28 0.28 92 1024.9
20260906160739 13 246 0.0 3.2 0.15 0.25 0.25 92 1024.9
20260906160239 13 250 1.6 4.8 0.18 0.25 0.25 92 1024.8
20260906155736 13 250 0.0 4.8 0.15 0.23 0.23 92 1024.7
20260906155238 13 182 0.0 3.2 0.15 0.23 0.23 92 1024.7
20260906154731 13 176 0.0 3.2 0.15 0.23 0.23 92 1024.8
20260906154235 13 176 0.0 3.2 0.13 0.20 0.20 92 1024.8
20260906153727 13 177 0.0 1.6 0.13 0.20 0.20 92 1024.8
20260906153225 13 176 0.0 1.6 0.13 0.18 0.18 92 1024.7
20260906152725 13 177 0.0 1.6 0.10 0.15 0.15 92 1024.8
20260906152219 13 176 0.0 1.6 0.08 0.13 0.13 92 1024.8
20260906151718 13 176 0.0 4.8 0.10 0.13 0.13 92 1024.8
20260906151219 13 175 0.0 4.8 0.08 0.10 0.10 92 1024.6
20260906150719 13 175 0.0 1.6 0.08 0.10 0.10 92 1024.7
20260906150219 13 175 0.0 1.6 0.05 0.08 0.08 92 1024.6
20260906145720 13 175 0.0 1.6 0.05 0.08 0.08 91 1024.6
20260906145213 13 175 0.0 1.6 0.05 0.08 0.08 91 1024.6
20260906144710 13 175 0.0 3.2 0.05 0.08 0.08 91 1024.5
20260906144210 13 175 0.0 3.2 0.05 0.08 0.08 91 1024.5
20260906143707 13 168 0.0 1.6 0.05 0.08 0.08 91 1024.5
20260906143207 13 167 0.0 4.8 0.03 0.05 0.05 91 1024.6
20260906142705 13 168 0.0 4.8 0.05 0.05 0.05 91 1024.5
20260906142205 13 168 0.0 4.8 0.05 0.05 0.05 91 1024.5
20260906141706 13 215 0.0 3.2 0.03 0.03 0.03 91 1024.4
20260906141202 13 194 0.0 3.2 0.03 0.03 0.03 91 1024.3
20260906140701 13 205 0.0 3.2 0.03 0.03 0.03 91 1024.4
20260906140202 13 200 0.0 3.2 0.03 0.03 0.03 91 1024.3
20260906135659 13 200 0.0 3.2 0.03 0.03 0.03 91 1024.3
20260906135158 13 267 0.0 1.6 0.03 0.03 0.03 91 1024.3
20260906134659 13 268 0.0 0.0 0.03 0.03 0.03 91 1024.3
20260906134159 13 267 0.0 0.0 0.03 0.03 0.03 91 1024.3
20260906133700 13 268 0.0 1.6 0.03 0.03 0.03 91 1024.2
20260906133159 13 267 0.0 4.8 0.03 0.03 0.03 91 1024.2
20260906132659 13 275 0.0 6.4 0.00 0.00 0.00 91 1024.1
20260906132156 13 267 1.6 6.4 0.00 0.00 0.00 91 1024.0
20260906131654 13 215 1.6 6.4 0.00 0.00 0.00 91 1023.9
20260906131152 13 196 1.6 4.8 0.00 0.00 0.00 90 1024.0
20260906130652 13 194 0.0 3.2 0.00 0.00 0.00 90 1023.9
20260906130151 13 163 1.6 6.4 0.00 0.00 0.00 90 1023.9
20260906125651 13 255 1.6 6.4 0.00 0.00 0.00 91 1023.8
20260906125146 13 248 0.0 4.8 0.00 0.00 0.00 91 1023.8
20260906124647 13 272 0.0 3.2 0.00 0.00 0.00 91 1023.9
20260906124146 13 272 0.0 3.2 0.00 0.00 0.00 91 1023.9
20260906123647 13 273 0.0 3.2 0.00 0.00 0.00 91 1024.1
20260906123145 13 272 0.0 1.6 0.00 0.00 0.00 91 1024.2
20260906122646 13 272 0.0 1.6 0.00 0.00 0.00 91 1024.2
20260906122140 13 273 0.0 0.0 0.00 0.00 0.00 91 1024.2
20260906121641 13 272 0.0 0.0 0.00 0.00 0.00 91 1024.2
20260906121139 13 272 0.0 0.0 0.00 0.00 0.00 90 1024.2
20260906120640 13 272 0.0 0.0 0.00 0.00 0.00 90 1024.3
20260906120139 13 273 0.0 0.0 0.00 0.00 0.00 90 1024.2
20260906115638 13 272 0.0 0.0 0.00 0.00 0.00 90 1024.1
20260906115140 13 272 0.0 0.0 0.00 0.00 0.00 90 1024.0
20260906114639 13 272 0.0 0.0 0.00 0.00 0.00 90 1023.9
20260906114135 13 273 0.0 0.0 0.00 0.00 0.00 90 1023.9
20260906113635 13 272 0.0 0.0 0.00 0.00 0.00 90 1023.9
20260906113134 13 272 0.0 0.0 0.00 0.00 0.00 90 1023.9
20260906112635 13 273 0.0 0.0 0.00 0.00 0.00 90 1024.0
20260906112134 13 272 0.0 0.0 0.00 0.00 0.00 90 1024.0
20260906111635 13 273 0.0 0.0 0.00 0.00 0.00 90 1024.0
20260906111131 13 272 0.0 0.0 0.00 0.00 0.00 90 1024.1
20260906110632 13 273 0.0 1.6 0.00 0.00 0.00 90 1024.1
20260906110130 14 272 0.0 1.6 0.00 0.00 0.00 90 1024.0
20260906105630 14 272 0.0 0.0 0.00 0.00 0.00 90 1024.0
20260906105131 14 272 0.0 0.0 0.00 0.00 0.00 89 1024.0
20260906104636 14 273 0.0 0.0 0.00 0.00 0.00 89 1024.0
20260906104126 14 272 0.0 0.0 0.00 0.00 0.00 89 1024.0
20260906103628 14 272 0.0 0.0 0.00 0.00 0.00 89 1023.9
20260906103126 14 273 0.0 0.0 0.00 0.00 0.00 89 1024.0
20260906102626 14 272 0.0 0.0 0.00 0.00 0.00 89 1023.8
20260906102126 14 273 0.0 3.2 0.00 0.00 0.00 89 1023.8
20260906101626 14 272 1.6 4.8 0.00 0.00 0.00 90 1023.8
20260906101127 14 273 1.6 4.8 0.00 0.00 0.00 90 1023.8
20260906100626 14 272 0.0 3.2 0.00 0.00 0.00 90 1023.7
20260906100127 14 273 0.0 1.6 0.00 0.00 0.00 90 1023.8
20260906095624 14 272 0.0 3.2 0.00 0.00 0.00 90 1023.9
20260906095122 14 273 0.0 3.2 0.00 0.00 0.00 90 1023.9
20260906094624 14 273 0.0 3.2 0.00 0.00 0.00 90 1023.9
20260906094124 14 273 0.0 1.6 0.00 0.00 0.00 89 1023.9
20260906093620 14 272 0.0 3.2 0.00 0.00 0.00 89 1023.8
20260906093121 14 272 0.0 3.2 0.00 0.00 0.00 89 1023.6
20260906092616 14 272 0.0 3.2 0.00 0.00 0.00 89 1023.7
20260906092114 14 273 0.0 3.2 0.00 0.00 0.00 89 1023.7
20260906091614 14 273 0.0 3.2 0.00 0.00 0.00 89 1023.7
20260906091116 14 273 0.0 3.2 0.00 0.00 0.00 89 1023.6
20260906090614 14 273 0.0 3.2 0.00 0.00 0.00 89 1023.5
20260906090115 14 272 0.0 3.2 0.00 0.00 0.00 89 1023.6
20260906085612 14 272 0.0 0.0 0.00 0.00 0.00 89 1023.6
20260906085110 14 272 0.0 0.0 0.00 0.00 0.00 89 1023.7
20260906084612 14 273 0.0 0.0 0.00 0.00 0.00 89 1023.7
20260906084110 14 272 0.0 0.0 0.00 0.00 0.00 89 1023.7
20260906083608 14 273 0.0 1.6 0.00 0.00 0.00 89 1023.7
20260906083109 14 273 0.0 1.6 0.00 0.00 0.00 89 1023.7
20260906082602 14 273 0.0 1.6 0.00 0.00 0.00 89 1023.6
20260906082103 14 272 0.0 1.6 0.00 0.00 0.00 89 1023.6
20260906081602 14 272 0.0 1.6 0.00 0.00 0.00 89 1023.6
20260906081102 14 272 0.0 0.0 0.00 0.00 0.00 89 1023.6
20260906080603 14 273 0.0 0.0 0.00 0.00 0.00 88 1023.6
20260906080103 14 272 0.0 0.0 0.00 0.00 0.00 89 1023.6
20260906075556 14 273 0.0 3.2 0.00 0.00 0.00 89 1023.6
20260906075056 14 273 0.0 3.2 0.00 0.00 0.00 89 1023.7
20260906074557 14 272 0.0 1.6 0.00 0.00 0.00 89 1023.7
20260906074056 14 273 0.0 3.2 0.00 0.00 0.00 89 1023.7
20260906073556 14 272 0.0 3.2 0.00 0.00 0.00 89 1023.9
20260906073056 14 272 0.0 3.2 0.00 0.00 0.00 89 1023.8
20260906072552 14 272 0.0 0.0 0.00 0.00 0.00 88 1023.8
20260906072053 14 272 0.0 0.0 0.00 0.00 0.00 88 1023.8
20260906071550 14 272 0.0 0.0 0.00 0.00 0.00 88 1023.8
20260906071051 15 272 0.0 0.0 0.00 0.00 0.00 88 1023.7
20260906070550 15 273 0.0 0.0 0.00 0.00 0.00 88 1023.7
20260906070050 15 272 0.0 3.2 0.00 0.00 0.00 88 1023.8
20260906065547 15 272 0.0 3.2 0.00 0.00 0.00 88 1023.7
20260906065046 14 272 0.0 3.2 0.00 0.00 0.00 89 1023.7
20260906064547 14 272 0.0 3.2 0.00 0.00 0.00 89 1023.7
20260906064046 14 273 0.0 3.2 0.00 0.00 0.00 89 1023.8
20260906063544 14 272 0.0 3.2 0.00 0.00 0.00 89 1023.7
20260906063045 14 273 0.0 3.2 0.00 0.00 0.00 88 1023.6
20260906062539 14 272 0.0 3.2 0.00 0.00 0.00 89 1023.6
20260906062038 14 273 0.0 4.8 0.00 0.00 0.00 89 1023.9
20260906061538 14 272 0.0 4.8 0.00 0.00 0.00 89 1023.7
20260906061044 13 271 0.0 3.2 0.00 0.00 0.00 89 1023.9
20260906060538 13 273 0.0 3.2 0.00 0.00 0.00 89 1024.0
20260906060039 13 272 0.0 0.0 0.00 0.00 0.00 89 1024.1
20260906055537 13 272 0.0 0.0 0.00 0.00 0.00 88 1024.1
20260906055036 13 272 0.0 0.0 0.00 0.00 0.00 88 1024.1
20260906054537 14 272 0.0 0.0 0.00 0.00 0.00 88 1024.2
20260906054034 14 272 0.0 0.0 0.00 0.00 0.00 88 1024.1
20260906053532 14 272 0.0 0.0 0.00 0.00 0.00 88 1024.1
20260906053032 14 272 0.0 0.0 0.00 0.00 0.00 87 1024.1
20260906052530 14 272 0.0 0.0 0.00 0.00 0.00 87 1024.1
20260906052034 14 272 0.0 0.0 0.00 0.00 0.00 87 1024.2
20260906051529 14 272 0.0 0.0 0.00 0.00 0.00 87 1024.2
20260906051029 15 271 0.0 0.0 0.00 0.00 0.00 87 1024.1
20260906050526 15 272 0.0 0.0 0.00 0.00 0.00 87 1024.1
20260906050026 15 272 0.0 0.0 0.00 0.00 0.00 87 1024.1
20260906045524 15 272 0.0 0.0 0.00 0.00 0.00 87 1024.1
20260906045024 15 272 0.0 0.0 0.00 0.00 0.00 86 1024.2
20260906044525 15 272 0.0 0.0 0.00 0.00 0.00 86 1024.2
20260906044022 15 272 0.0 0.0 0.00 0.00 0.00 86 1024.2
20260906043520 15 272 0.0 1.6 0.00 0.00 0.00 86 1024.2
20260906043020 15 273 0.0 1.6 0.00 0.00 0.00 86 1024.3
20260906042515 15 272 0.0 3.2 0.00 0.00 0.00 86 1024.3
20260906042013 15 272 0.0 3.2 0.00 0.00 0.00 85 1024.3
20260906041510 16 272 1.6 4.8 0.00 0.00 0.00 85 1024.3
20260906041008 16 272 1.6 4.8 0.00 0.00 0.00 85 1024.2
20260906040509 16 272 1.6 3.2 0.00 0.00 0.00 85 1024.3
20260906040002 16 272 1.6 6.4 0.00 0.00 0.00 85 1024.3
20260906035501 16 273 1.6 6.4 0.00 0.00 0.00 85 1024.3
20260906034958 16 270 1.6 3.2 0.00 0.00 0.00 84 1024.3
20260906034455 16 270 1.6 3.2 0.00 0.00 0.00 84 1024.2
20260906033956 16 270 1.6 4.8 0.00 0.00 0.00 84 1024.1
20260906033452 16 271 1.6 4.8 0.00 0.00 0.00 83 1024.0
20260906032950 16 270 1.6 4.8 0.00 0.00 0.00 83 1024.1
20260906032449 16 270 1.6 6.4 0.00 0.00 0.00 83 1023.9
20260906031950 17 269 1.6 6.4 0.00 0.00 0.00 83 1023.9
20260906031449 17 271 1.6 4.8 0.00 0.00 0.00 82 1024.1
20260906030950 17 271 3.2 9.7 0.00 0.00 0.00 82 1024.0
20260906030446 17 268 3.2 9.7 0.00 0.00 0.00 82 1024.0
20260906025944 17 226 1.6 9.7 0.00 0.00 0.00 82 1024.0
20260906025444 17 271 1.6 6.4 0.00 0.00 0.00 81 1024.0
20260906024943 17 281 1.6 6.4 0.00 0.00 0.00 81 1024.0
20260906024444 17 239 3.2 9.7 0.00 0.00 0.00 81 1024.0
20260906023945 18 27 3.2 9.7 0.00 0.00 0.00 80 1024.0
20260906023439 18 257 3.2 8.0 0.00 0.00 0.00 80 1024.0
20260906022938 18 277 3.2 6.4 0.00 0.00 0.00 79 1023.9
20260906022438 18 298 3.2 9.7 0.00 0.00 0.00 78 1023.9
20260906021938 18 306 3.2 9.7 0.00 0.00 0.00 78 1023.7
20260906021437 18 256 3.2 8.0 0.00 0.00 0.00 77 1023.8
20260906020939 18 257 4.8 12.9 0.00 0.00 0.00 76 1023.8
20260906020433 18 340 4.8 14.5 0.00 0.00 0.00 75 1023.7
20260906015931 18 287 4.8 14.5 0.00 0.00 0.00 75 1023.7
20260906015432 18 245 4.8 9.7 0.00 0.00 0.00 74 1023.8
20260906014932 19 327 4.8 12.9 0.00 0.00 0.00 74 1023.8
20260906014432 19 286 4.8 12.9 0.00 0.00 0.00 73 1023.8
20260906013932 19 250 4.8 14.5 0.00 0.00 0.00 73 1023.9
20260906013430 19 0 4.8 14.5 0.00 0.00 0.00 73 1023.9
20260906012929 19 277 4.8 12.9 0.00 0.00 0.00 73 1024.0
20260906012431 19 302 6.4 12.9 0.00 0.00 0.00 72 1023.9
20260906011928 20 260 4.8 12.9 0.00 0.00 0.00 72 1024.0
20260906011426 20 252 4.8 12.9 0.00 0.00 0.00 71 1024.0
20260906010927 20 261 4.8 14.5 0.00 0.00 0.00 71 1024.1
20260906010424 20 282 4.8 14.5 0.00 0.00 0.00 69 1024.0
20260906005924 21 250 4.8 8.0 0.00 0.00 0.00 69 1023.9
20260906005425 21 275 4.8 12.9 0.00 0.00 0.00 67 1024.0
20260906004921 21 297 4.8 12.9 0.00 0.00 0.00 68 1024.0
20260906004419 21 304 4.8 9.7 0.00 0.00 0.00 67 1024.0
20260906003920 21 266 3.2 9.7 0.00 0.00 0.00 66 1023.9
20260906003414 21 265 3.2 8.0 0.00 0.00 0.00 65 1023.9
20260906002913 21 280 3.2 11.3 0.00 0.00 0.00 64 1024.0
20260906002413 21 236 4.8 11.3 0.00 0.00 0.00 63 1023.9
20260906001913 21 229 4.8 9.7 0.00 0.00 0.00 62 1023.9
20260906001413 22 280 4.8 11.3 0.00 0.00 0.00 62 1023.8
20260906000914 22 268 4.8 11.3 0.00 0.00 0.00 62 1023.9
20260906000410 22 313 4.8 12.9 0.00 0.00 0.00 62 1023.9
20260905235907 22 327 3.2 12.9 0.00 0.00 0.00 63 1023.7
20260905235405 22 274 3.2 9.7 0.00 0.00 0.00 63 1023.6
20260905234906 21 329 3.2 9.7 0.00 0.00 0.00 65 1023.8
20260905234404 21 300 4.8 8.0 0.00 0.00 0.00 64 1023.9
20260905233902 22 232 4.8 9.7 0.00 0.00 0.00 64 1023.9
20260905233401 22 252 4.8 9.7 0.00 0.00 0.00 63 1023.9
20260905232902 22 291 3.2 9.7 0.00 0.00 0.00 65 1023.9
20260905232359 22 319 3.2 9.7 0.00 0.00 0.00 64 1023.9
20260905231859 22 204 4.8 11.3 0.00 0.00 0.00 65 1023.9
20260905231401 21 336 4.8 11.3 0.00 0.00 0.00 65 1024.0
20260905230900 21 275 4.8 11.3 0.00 0.00 0.00 65 1023.9
20260905230359 22 254 6.4 11.3 0.00 0.00 0.00 65 1024.0
20260905225858 22 210 4.8 11.3 0.00 0.00 0.00 65 1024.1
20260905225357 22 227 3.2 11.3 0.00 0.00 0.00 66 1024.2
20260905224857 22 271 3.2 11.3 0.00 0.00 0.00 65 1024.3
20260905224358 22 285 4.8 11.3 0.00 0.00 0.00 64 1024.3